Location: Guferjoch
(46.7462°N, 8.4506°E)
Time: 00:34:12
(UTC+00:00)

Meteor 1-4 Rocket - Pass Details

Date: 14 July 2020
Orbit: 449 x 502 km, 81.2° (Epoch: 03 August)

Event Time Altitude Azimuth Distance (km) Brightness Sun altitude
Rises 00:15:26 0° 348° (NNW) 2,588 7.4 -20.9°
Reaches altitude 10° 00:17:35 10° 347° (NNW) 1,693 6.2 -20.9°
Maximum altitude 00:21:17 80° 261° (W) 499 2.4 -20.7°
Enters shadow 00:21:24 78° 230° (SW) 502 2.4 -20.7°
